• In Spain
  • List of Countries
  • For 7 days
  • Water Temperature
  • Satellite Maps
  • Weather Map
  • Weather Widgets
  • user-avatar
    Login

    Hourly Weather Ischgl

    Today, 17 December, Sunday

    Time Temperature Precipitation Wind Pressure Humidity
    00:00 -15°C° 0.2 mm 2 mps 567 mmHg 95%
    01:00 -15°C° 0.2 mm 2 mps 567 mmHg 95%
    02:00 -15°C° 0.3 mm 2 mps 567 mmHg 94%
    03:00 -16°C° 0.3 mm 2 mps 567 mmHg 93%
    04:00 -14°C° 0.3 mm 1 mps 567 mmHg 93%
    05:00 -16°C° 0.3 mm 2 mps 567 mmHg 93%
    06:00 -16°C° 0.3 mm 2 mps 568 mmHg 93%
    07:00 -16°C° 0.3 mm 2 mps 568 mmHg 93%
    08:00 -15°C° 0.3 mm 2 mps 568 mmHg 93%
    09:00 -15°C° 0.3 mm 2 mps 569 mmHg 92%
    10:00 -14°C° 0.3 mm 2 mps 569 mmHg 92%
    11:00 -14°C° 0.2 mm 2 mps 570 mmHg 90%
    12:00 -14°C° 0.2 mm 2 mps 570 mmHg 89%
    13:00 -13°C° 0.2 mm 2 mps 570 mmHg 87%
    14:00 -14°C° 0.1 mm 2 mps 570 mmHg 89%
    15:00 -15°C° 0.1 mm 2 mps 570 mmHg 90%
    16:00 -16°C° 0.1 mm 2 mps 570 mmHg 92%
    17:00 -17°C° 0 mm 2 mps 569 mmHg 93%
    18:00 -18°C° 0 mm 2 mps 569 mmHg 94%
    19:00 -19°C° 0 mm 2 mps 569 mmHg 95%
    20:00 -20°C° 0 mm 2 mps 569 mmHg 94%
    21:00 -20°C° 0 mm 2 mps 569 mmHg 93%
    22:00 -21°C° 0 mm 2 mps 569 mmHg 92%
    23:00 -21°C° 0 mm 2 mps 569 mmHg 92%

    Tomorrow, 18 December, Monday

    Time Temperature Precipitation Wind Pressure Humidity
    00:00 -21°C° 0 mm 2 mps 569 mmHg 91%
    01:00 -21°C° 0 mm 2 mps 569 mmHg 90%
    02:00 -21°C° 0 mm 2 mps 569 mmHg 88%
    03:00 -21°C° 0 mm 2 mps 569 mmHg 86%
    04:00 -21°C° 0 mm 2 mps 569 mmHg 84%
    05:00 -20°C° 0 mm 2 mps 569 mmHg 82%
    06:00 -19°C° 0 mm 2 mps 570 mmHg 79%
    07:00 -17°C° 0 mm 2 mps 570 mmHg 77%
    08:00 -16°C° 0.1 mm 2 mps 570 mmHg 79%
    09:00 -15°C° 0.1 mm 2 mps 571 mmHg 81%
    10:00 -14°C° 0.1 mm 2 mps 571 mmHg 83%
    11:00 -11°C° 0.4 mm 1 mps 571 mmHg 86%
    12:00 -10°C° 0.4 mm 1 mps 571 mmHg 89%
    13:00 -9°C° 0.4 mm 1 mps 571 mmHg 91%
    14:00 -9°C° 0.6 mm 1 mps 571 mmHg 93%
    15:00 -9°C° 0.6 mm 1 mps 571 mmHg 94%
    16:00 -9°C° 0.6 mm 1 mps 571 mmHg 95%
    17:00 -9°C° 0.5 mm 1 mps 571 mmHg 95%
    18:00 -12°C° 0.5 mm 2 mps 571 mmHg 96%
    19:00 -12°C° 0.5 mm 2 mps 572 mmHg 96%
    20:00 -12°C° 0.2 mm 2 mps 572 mmHg 96%
    21:00 -13°C° 0.2 mm 2 mps 572 mmHg 96%
    22:00 -13°C° 0.2 mm 2 mps 572 mmHg 95%
    23:00 -13°C° 0.1 mm 2 mps 572 mmHg 96%

    Day after tomorrow, 19 December, Tuesday

    Time Temperature Precipitation Wind Pressure Humidity
    00:00 -14°C° 0.1 mm 2 mps 572 mmHg 96%
    01:00 -12°C° 0.1 mm 1 mps 572 mmHg 96%
    02:00 -12°C° 0.1 mm 1 mps 573 mmHg 96%
    03:00 -13°C° 0.1 mm 1 mps 573 mmHg 96%
    04:00 -15°C° 0.1 mm 2 mps 573 mmHg 95%
    05:00 -13°C° 0 mm 1 mps 573 mmHg 95%
    06:00 -13°C° 0 mm 1 mps 574 mmHg 95%
    07:00 -13°C° 0 mm 1 mps 574 mmHg 95%
    08:00 -14°C° 0 mm 2 mps 575 mmHg 94%
    09:00 -13°C° 0 mm 2 mps 576 mmHg 94%
    10:00 -12°C° 0 mm 2 mps 576 mmHg 93%
    11:00 -10°C° 0 mm 2 mps 577 mmHg 92%
    12:00 -10°C° 0 mm 2 mps 577 mmHg 91%
    13:00 -9°C° 0 mm 2 mps 577 mmHg 90%
    14:00 -9°C° 0 mm 2 mps 577 mmHg 91%
    15:00 -10°C° 0 mm 2 mps 577 mmHg 92%
    16:00 -12°C° 0 mm 2 mps 577 mmHg 93%
    17:00 -13°C° 0 mm 2 mps 576 mmHg 94%
    18:00 -14°C° 0 mm 2 mps 576 mmHg 95%
    19:00 -13°C° 0 mm 1 mps 576 mmHg 96%
    20:00 -13°C° 0 mm 1 mps 576 mmHg 94%
    21:00 -13°C° 0 mm 1 mps 576 mmHg 92%
    22:00 -13°C° 0 mm 1 mps 576 mmHg 90%
    23:00 -14°C° 0.1 mm 2 mps 576 mmHg 90%

    20 December, Wednesday

    Time Temperature Precipitation Wind Pressure Humidity
    00:00 -14°C° 0.1 mm 2 mps 576 mmHg 89%
    01:00 -13°C° 0.1 mm 2 mps 577 mmHg 89%
    02:00 -12°C° 0.6 mm 2 mps 577 mmHg 91%
    03:00 -12°C° 0.6 mm 2 mps 577 mmHg 92%
    04:00 -10°C° 0.6 mm 2 mps 577 mmHg 94%
    05:00 -10°C° 0.9 mm 2 mps 577 mmHg 95%
    06:00 -10°C° 0.9 mm 2 mps 577 mmHg 95%
    07:00 -12°C° 0.9 mm 3 mps 577 mmHg 95%
    08:00 -10°C° 0.8 mm 3 mps 577 mmHg 94%
    09:00 -10°C° 0.8 mm 3 mps 577 mmHg 94%
    10:00 -9°C° 0.8 mm 3 mps 578 mmHg 94%
    11:00 -9°C° 0.6 mm 3 mps 578 mmHg 94%
    12:00 -8°C° 0.6 mm 3 mps 578 mmHg 94%
    13:00 -8°C° 0.6 mm 3 mps 578 mmHg 94%
    14:00 -8°C° 0.5 mm 3 mps 578 mmHg 94%
    15:00 -8°C° 0.5 mm 3 mps 578 mmHg 95%
    16:00 -8°C° 0.5 mm 3 mps 578 mmHg 95%
    17:00 -8°C° 0.4 mm 3 mps 578 mmHg 95%
    18:00 -7°C° 0.4 mm 2 mps 579 mmHg 95%
    19:00 -7°C° 0.4 mm 2 mps 579 mmHg 95%
    20:00 -7°C° 0.3 mm 2 mps 579 mmHg 95%
    21:00 -7°C° 0.3 mm 2 mps 579 mmHg 95%
    22:00 -7°C° 0.3 mm 2 mps 580 mmHg 95%
    23:00 -7°C° 0.1 mm 2 mps 580 mmHg 95%

    21 December, Thursday

    Time Temperature Precipitation Wind Pressure Humidity
    00:00 -7°C° 0.1 mm 2 mps 580 mmHg 95%
    01:00 -7°C° 0.1 mm 2 mps 579 mmHg 95%
    02:00 -7°C° 0 mm 2 mps 579 mmHg 95%
    03:00 -7°C° 0 mm 2 mps 579 mmHg 95%
    04:00 -7°C° 0 mm 2 mps 579 mmHg 95%
    05:00 -7°C° 0 mm 2 mps 579 mmHg 95%
    06:00 -7°C° 0 mm 2 mps 580 mmHg 95%
    07:00 -7°C° 0 mm 2 mps 580 mmHg 94%
    08:00 -6°C° 0 mm 2 mps 580 mmHg 94%
    09:00 -6°C° 0 mm 2 mps 581 mmHg 94%
    10:00 -5°C° 0 mm 2 mps 581 mmHg 94%
    11:00 -5°C° 0 mm 2 mps 581 mmHg 95%
    12:00 -4°C° 0 mm 2 mps 581 mmHg 96%
    13:00 -4°C° 0 mm 2 mps 581 mmHg 97%
    14:00 -4°C° 0 mm 2 mps 581 mmHg 96%
    15:00 -5°C° 0 mm 2 mps 580 mmHg 94%
    16:00 -5°C° 0 mm 2 mps 580 mmHg 93%
    17:00 -5°C° 0.1 mm 2 mps 580 mmHg 92%
    18:00 -6°C° 0.1 mm 2 mps 580 mmHg 91%
    19:00 -6°C° 0.1 mm 2 mps 580 mmHg 90%
    20:00 -6°C° 0 mm 2 mps 580 mmHg 88%
    21:00 -6°C° 0 mm 2 mps 580 mmHg 87%
    22:00 -6°C° 0 mm 2 mps 579 mmHg 86%
    23:00 -7°C° 0 mm 2 mps 579 mmHg 85%

    22 December, Friday

    Time Temperature Precipitation Wind Pressure Humidity
    00:00 -7°C° 0 mm 2 mps 579 mmHg 84%
    01:00 -7°C° 0 mm 2 mps 578 mmHg 83%
    02:00 -7°C° 0 mm 2 mps 578 mmHg 85%
    03:00 -8°C° 0 mm 2 mps 577 mmHg 86%
    04:00 -8°C° 0 mm 2 mps 577 mmHg 87%
    05:00 -8°C° 0 mm 2 mps 577 mmHg 89%
    06:00 -8°C° 0 mm 2 mps 576 mmHg 90%
    07:00 -9°C° 0 mm 3 mps 576 mmHg 92%
    08:00 -9°C° 0.8 mm 3 mps 576 mmHg 92%
    09:00 -8°C° 0.8 mm 3 mps 577 mmHg 93%
    10:00 -8°C° 0.8 mm 3 mps 577 mmHg 93%
    11:00 -8°C° 1 mm 3 mps 577 mmHg 93%
    12:00 -9°C° 1 mm 4 mps 577 mmHg 94%
    13:00 -9°C° 1 mm 4 mps 577 mmHg 94%
    14:00 -9°C° 0.6 mm 4 mps 577 mmHg 94%
    15:00 -10°C° 0.6 mm 4 mps 577 mmHg 94%
    16:00 -11°C° 0.6 mm 4 mps 577 mmHg 94%
    17:00 -12°C° 0.4 mm 4 mps 577 mmHg 94%
    18:00 -12°C° 0.4 mm 4 mps 578 mmHg 95%
    19:00 -14°C° 0.4 mm 4 mps 578 mmHg 95%
    20:00 -13°C° 0.5 mm 3 mps 578 mmHg 95%
    21:00 -13°C° 0.5 mm 3 mps 579 mmHg 95%
    22:00 -14°C° 0.5 mm 3 mps 579 mmHg 95%
    23:00 -14°C° 0.5 mm 3 mps 579 mmHg 95%
    Show more